Regional Weather Roundup
Issued by NWS

Home | Current Version | Previous Version | Graphics & Text | Print | Product List | Glossary On
Versions: 1 2 3 4 5 6 7 8 9 10 11 12 13 14 15 16 17 18 19 20 21 22 23 24 25 26 27 28 29 30 31 32 33 34 35 36 37 38 39 40 41 42 43 44 45 46 47 48 49 50
000
ASUS45 KBOI 291310
RWRID

IDAHO REGIONAL WEATHER ROUNDUP
NATIONAL WEATHER SERVICE BOISE ID
700 AM MDT THU SEP 29 2016

NOTE: "FAIR" INDICATES FEW OR NO CLOUDS BELOW 12000 FEET
WITH NO SIGNIFICANT WEATHER AND/OR OBSTRUCTIONS TO VISIBILITY

IDZ012-014-291400-
SOUTHWEST IDAHO


CITY           SKY/WX    TMP DP  RH WIND       PRES   REMARKS
BOISE          PTCLDY    71  40  32 SE9       29.95R
CALDWELL       PTCLDY    65  45  48 SE13      29.95R
MOUNTAIN HOME  MOCLDY    66  47  50 SE15      29.99R
$$

IDZ016-017-291400-
SOUTHCENTRAL IDAHO


CITY           SKY/WX    TMP DP  RH WIND       PRES   REMARKS
JEROME         MOCLDY    60  46  59 NE13      30.10R
TWIN FALLS     PTCLDY    67  42  40 VRB3      30.08R
$$

IDZ019>023-291400-
SOUTHEAST IDAHO


CITY           SKY/WX    TMP DP  RH WIND       PRES   REMARKS
IDAHO FALLS    CLOUDY    53  48  83 CALM      30.21R
POCATELLO      CLOUDY    55  49  80 CALM      30.18S
REXBURG        CLOUDY    52  46  80 NE5       30.21S
$$

IDZ006-010-011-018-031-032-291400-
CENTRAL IDAHO MOUNTAINS


CITY           SKY/WX    TMP DP  RH WIND       PRES   REMARKS
MCCALL         PTCLDY    46  37  71 NE3       30.08S
HAILEY         CLEAR     46  37  71 NW7       30.24R
STANLEY          N/A     33  29  85 CALM      30.26S
SALMON         CLOUDY    39  36  87 N5        30.16S
CHALLIS        CLEAR     47  31  53 S5        30.20S
$$

IDZ002-004-006-007-026-291400-
NORTHERN IDAHO


CITY           SKY/WX    TMP DP  RH WIND       PRES   REMARKS
LEWISTON       MOCLDY    57  43  59 CALM      29.93S
LOWELL           N/A     50  48  93 NW3       30.00S
COEUR D`ALENE  PTCLDY    55  45  68 NE12      29.98S
MULLAN PASS    MOCLDY    58  37  45 S6        30.12F
$$



USA.gov is the U.S. government's official web portal to all federal, state and local government web resources and services.